HB9KBJ-8 Weather Reports


time (UTC)temp
C
wind
direction
speed
KPH
gust
KPH
rain 1hr
cm
rain 24hr
cm
rain mn
cm
humidity
%
barometer
mb
20260502231725 13 38 0.0 0.0 0.00 0.00 0.00 79 1017.6
20260502231219 13 38 0.0 0.0 0.00 0.00 0.00 79 1017.6
20260502230722 13 38 0.0 0.0 0.00 0.00 0.00 79 1017.6
20260502230219 13 38 0.0 0.0 0.00 0.00 0.00 78 1017.6
20260502225715 13 38 0.0 0.0 0.00 0.00 0.00 78 1017.6
20260502225233 13 38 0.0 0.0 0.00 0.00 0.00 77 1017.6
20260502224713 14 38 0.0 0.0 0.00 0.00 0.00 77 1017.5
20260502224218 14 38 0.0 0.0 0.00 0.00 0.00 77 1017.6
20260502223715 14 38 0.0 0.0 0.00 0.00 0.00 76 1017.6
20260502223232 14 38 0.0 0.0 0.00 0.00 0.00 75 1017.6
20260502222725 14 38 0.0 0.0 0.00 0.00 0.00 75 1017.6
20260502222219 15 38 0.0 0.0 0.00 0.00 0.00 75 1017.5
20260502221731 15 38 0.0 0.0 0.00 0.00 0.00 75 1017.5
20260502221221 15 38 0.0 0.0 0.00 0.00 0.00 75 1017.5
20260502220733 15 38 0.0 0.0 0.00 0.00 0.00 74 1017.5
20260502220232 15 38 0.0 0.0 0.00 0.00 0.00 74 1017.5
20260502215726 15 38 0.0 0.0 0.00 0.00 0.00 74 1017.5
20260502215222 15 38 0.0 0.0 0.00 0.00 0.00 74 1017.5
20260502214712 15 38 0.0 0.0 0.00 0.00 0.00 73 1017.5
20260502214214 16 38 0.0 0.0 0.00 0.00 0.00 72 1017.5
20260502213714 16 38 0.0 0.0 0.00 0.00 0.00 72 1017.3
20260502213229 16 38 0.0 0.0 0.00 0.00 0.00 71 1017.3
20260502212728 16 38 0.0 0.0 0.00 0.00 0.00 70 1017.3
20260502212226 16 38 0.0 0.0 0.00 0.00 0.00 70 1017.3
20260502211720 16 38 0.0 0.0 0.00 0.00 0.00 71 1017.2
20260502211216 16 38 0.0 0.0 0.00 0.00 0.00 71 1017.2
20260502210733 16 38 0.0 0.0 0.00 0.00 0.00 71 1017.3
20260502210226 16 38 0.0 0.0 0.00 0.00 0.00 70 1017.2
20260502205718 16 38 0.0 0.0 0.00 0.00 0.00 71 1017.2
20260502205217 16 38 0.0 0.0 0.00 0.00 0.00 70 1017.2
20260502204734 16 38 0.0 0.0 0.00 0.00 0.00 69 1017.2
20260502204229 16 38 0.0 0.0 0.00 0.00 0.00 68 1017.2
20260502203723 16 38 0.0 0.0 0.00 0.00 0.00 67 1017.2
20260502203216 16 38 0.0 0.0 0.00 0.00 0.00 66 1017.2
20260502202729 16 38 0.0 0.0 0.00 0.00 0.00 67 1017.2
20260502202225 16 38 0.0 0.0 0.00 0.00 0.00 66 1017.2
20260502201722 17 38 0.0 0.0 0.00 0.00 0.00 65 1017.2
20260502201216 17 38 0.0 0.0 0.00 0.00 0.00 63 1017.3
20260502200716 17 38 0.0 0.0 0.00 0.00 0.00 63 1017.3
20260502200216 17 38 0.0 0.0 0.00 0.00 0.00 63 1017.3
20260502195716 17 38 0.0 0.0 0.00 0.00 0.00 63 1017.2
20260502195216 17 38 0.0 0.0 0.00 0.00 0.00 62 1017.2
20260502194717 17 38 0.0 0.0 0.00 0.00 0.00 63 1017.2
20260502194236 17 38 0.0 0.0 0.00 0.00 0.00 63 1017.1
20260502193724 18 38 0.0 0.0 0.00 0.00 0.00 62 1017.1
20260502193220 18 38 0.0 0.0 0.00 0.00 0.00 61 1017.1
20260502192716 18 38 0.0 0.0 0.00 0.00 0.00 59 1017.1
20260502192229 18 38 0.0 0.0 0.00 0.00 0.00 59 1017.1
20260502191725 18 38 0.0 0.0 0.00 0.00 0.00 60 1017.0
20260502191217 18 38 0.0 0.0 0.00 0.00 0.00 61 1017.0
20260502190716 18 38 0.0 0.0 0.00 0.00 0.00 62 1017.0
20260502190231 18 38 0.0 0.0 0.00 0.00 0.00 62 1016.9
20260502185725 18 38 0.0 0.0 0.00 0.00 0.00 62 1016.8
20260502185216 18 38 0.0 0.0 0.00 0.00 0.00 62 1016.8
20260502184725 18 38 0.0 0.0 0.00 0.00 0.00 61 1016.8
20260502184234 18 38 0.0 0.0 0.00 0.00 0.00 61 1016.8
20260502183725 18 38 0.0 0.0 0.00 0.00 0.00 62 1016.6
20260502183225 18 38 0.0 0.0 0.00 0.00 0.00 61 1016.6
20260502182721 19 38 0.0 0.0 0.00 0.00 0.00 60 1016.6
20260502182215 19 38 0.0 0.0 0.00 0.00 0.00 59 1016.6
20260502181730 20 38 0.0 0.0 0.00 0.00 0.00 58 1016.7
20260502181223 20 38 0.0 0.0 0.00 0.00 0.00 57 1016.7
20260502180733 20 38 0.0 0.0 0.00 0.00 0.00 60 1016.7
20260502180234 20 38 0.0 0.0 0.00 0.00 0.00 59 1016.6
20260502170218 23 38 0.0 0.0 0.00 0.00 0.00 49 1016.6
20260502164236 24 38 0.0 0.0 0.00 0.00 0.00 42 1016.6
20260502163730 25 38 0.0 0.0 0.00 0.00 0.00 38 1016.8
20260502163228 25 38 0.0 0.0 0.00 0.00 0.00 38 1016.8
20260502162727 25 38 0.0 0.0 0.00 0.00 0.00 37 1016.8
20260502162226 24 38 0.0 0.0 0.00 0.00 0.00 37 1016.9
20260502161726 24 38 0.0 0.0 0.00 0.00 0.00 38 1017.0
20260502161226 24 38 0.0 0.0 0.00 0.00 0.00 37 1017.0
20260502160721 24 38 0.0 0.0 0.00 0.00 0.00 38 1017.1
20260502160213 25 38 0.0 0.0 0.00 0.00 0.00 37 1017.1
20260502152223 26 38 0.0 0.0 0.00 0.00 0.00 34 1017.5
20260502151716 26 38 0.0 0.0 0.00 0.00 0.00 36 1017.5
20260502151232 26 38 0.0 0.0 0.00 0.00 0.00 35 1017.5
20260502150727 26 38 0.0 0.0 0.00 0.00 0.00 36 1017.6
20260502150228 25 38 0.0 0.0 0.00 0.00 0.00 36 1017.7
20260502130723 24 355 0.0 0.0 0.00 0.00 0.00 38 1019.5
20260502130221 26 355 0.0 0.0 0.00 0.00 0.00 38 1019.5
20260502123729 24 355 0.0 0.0 0.00 0.00 0.00 42 1019.9
20260502123222 25 355 0.0 0.0 0.00 0.00 0.00 41 1019.9
20260502122720 25 355 0.0 0.0 0.00 0.00 0.00 41 1020.1
20260502122232 24 355 0.0 0.0 0.00 0.00 0.00 44 1020.1
20260502121727 23 355 0.0 0.0 0.00 0.00 0.00 44 1020.1
20260502121224 23 355 0.0 0.0 0.00 0.00 0.00 44 1020.3
20260502120715 23 355 0.0 0.0 0.00 0.00 0.00 46 1020.3
20260502120234 23 355 0.0 0.0 0.00 0.00 0.00 46 1020.4
20260502115726 22 355 0.0 0.0 0.00 0.00 0.00 47 1020.5
20260502115218 22 351 0.0 0.0 0.00 0.00 0.00 46 1020.7
20260502114735 22 351 0.0 0.0 0.00 0.00 0.00 46 1020.6
20260502114226 23 351 0.0 0.0 0.00 0.00 0.00 46 1020.7
20260502113721 22 351 0.0 0.0 0.00 0.00 0.00 47 1020.8
20260502113216 22 351 0.0 0.0 0.00 0.00 0.00 45 1020.9
20260502112731 22 351 0.0 0.0 0.00 0.00 0.00 47 1021.0
20260502112225 22 351 0.0 0.0 0.00 0.00 0.00 47 1021.1
20260502111719 22 351 0.0 0.0 0.00 0.00 0.00 46 1021.2
20260502111219 22 351 0.0 0.0 0.00 0.00 0.00 45 1021.3
20260502110731 23 351 0.0 0.0 0.00 0.00 0.00 45 1021.4
20260502110227 21 351 0.0 0.0 0.00 0.00 0.00 49 1021.5
20260502105735 22 351 0.0 0.0 0.00 0.00 0.00 47 1021.5
20260502105230 21 351 0.0 0.0 0.00 0.00 0.00 50 1021.6
20260502104720 21 351 0.0 0.0 0.00 0.00 0.00 52 1021.7
20260502104215 21 351 0.0 0.0 0.00 0.00 0.00 50 1021.8
20260502103730 21 351 0.0 0.0 0.00 0.00 0.00 51 1021.9
20260502103222 20 351 0.0 0.0 0.00 0.00 0.00 52 1021.9
20260502102719 20 351 0.0 0.0 0.00 0.00 0.00 51 1022.0
20260502102220 20 351 0.0 0.0 0.00 0.00 0.00 51 1022.1
20260502101724 20 351 0.0 0.0 0.00 0.00 0.00 52 1022.2
20260502101221 20 351 0.0 0.0 0.00 0.00 0.00 52 1022.3
20260502100715 20 351 0.0 0.0 0.00 0.00 0.00 52 1022.3
20260502100232 20 351 0.0 0.0 0.00 0.00 0.00 54 1022.4
20260502091228 19 351 0.0 0.0 0.00 0.00 0.00 55 1023.1
20260502090721 17 351 0.0 0.0 0.00 0.00 0.00 60 1023.2
20260502090236 18 351 0.0 0.0 0.00 0.00 0.00 57 1023.3
20260502071215 12 44 0.0 0.0 0.00 0.00 0.00 73 1023.9
20260502070719 12 44 0.0 0.0 0.00 0.00 0.00 71 1023.9
20260502070217 12 44 0.0 0.0 0.00 0.00 0.00 70 1024.0
20260502065732 13 44 0.0 0.0 0.00 0.00 0.00 68 1024.1
20260502065223 12 44 0.0 0.0 0.00 0.00 0.00 74 1024.1
20260502064736 12 44 0.0 0.0 0.00 0.00 0.00 72 1024.2
20260502064214 12 44 0.0 0.0 0.00 0.00 0.00 71 1024.3
20260502063730 12 44 0.0 0.0 0.00 0.00 0.00 72 1024.2
20260502063229 12 44 0.0 0.0 0.00 0.00 0.00 74 1024.2
20260502062726 12 44 0.0 0.0 0.00 0.00 0.00 76 1024.2
20260502062222 11 44 0.0 0.0 0.00 0.00 0.00 78 1024.1
20260502061735 11 44 0.0 0.0 0.00 0.00 0.00 79 1024.2
20260502061227 10 44 0.0 0.0 0.00 0.00 0.00 81 1024.2
20260502060725 9 44 0.0 0.0 0.00 0.00 0.00 80 1024.2
20260502060227 9 44 0.0 0.0 0.00 0.00 0.00 80 1024.2
20260502055721 10 44 0.0 0.0 0.00 0.00 0.00 82 1024.2
20260502055215 9 44 0.0 0.0 0.00 0.00 0.00 83 1024.1
20260502054730 9 44 0.0 0.0 0.00 0.00 0.00 84 1024.2
20260502054228 8 44 0.0 0.0 0.00 0.00 0.00 85 1024.2
20260502053726 8 44 0.0 0.0 0.00 0.00 0.00 85 1024.2
20260502053227 8 44 0.0 0.0 0.00 0.00 0.00 85 1024.2
20260502052722 8 44 0.0 0.0 0.00 0.00 0.00 85 1024.2
20260502052218 7 44 0.0 0.0 0.00 0.00 0.00 85 1024.2
20260502051731 7 44 0.0 0.0 0.00 0.00 0.00 85 1024.2
20260502051230 7 44 0.0 0.0 0.00 0.00 0.00 85 1024.2
20260502050730 7 44 0.0 0.0 0.00 0.00 0.00 85 1024.1
20260502050223 7 44 0.0 0.0 0.00 0.00 0.00 85 1024.1
20260502045721 7 44 0.0 0.0 0.00 0.00 0.00 85 1024.1
20260502045215 7 44 0.0 0.0 0.00 0.00 0.00 85 1024.2
20260502044728 6 44 0.0 0.0 0.00 0.00 0.00 85 1024.2
20260502044225 6 44 0.0 0.0 0.00 0.00 0.00 85 1024.1
20260502043721 6 44 0.0 0.0 0.00 0.00 0.00 85 1024.1
20260502043234 6 44 0.0 0.0 0.00 0.00 0.00 85 1024.1
20260502042725 6 44 0.0 0.0 0.00 0.00 0.00 85 1024.0
20260502042214 6 44 0.0 0.0 0.00 0.00 0.00 85 1024.0
20260502041715 6 44 0.0 0.0 0.00 0.00 0.00 85 1024.0
20260502041212 6 44 0.0 0.0 0.00 0.00 0.00 85 1024.0
20260502040730 6 44 0.0 0.0 0.00 0.00 0.00 85 1024.0
20260502040227 6 44 0.0 0.0 0.00 0.00 0.00 85 1024.0
20260502035719 6 44 0.0 0.0 0.00 0.00 0.00 85 1024.0
20260502035230 6 44 0.0 0.0 0.00 0.00 0.00 85 1024.0
20260502034728 6 44 0.0 0.0 0.00 0.00 0.00 84 1023.9
20260502034226 6 44 0.0 0.0 0.00 0.00 0.00 84 1024.0
20260502033725 6 44 0.0 0.0 0.00 0.00 0.00 84 1024.0
20260502033236 7 44 0.0 0.0 0.00 0.00 0.00 84 1024.0
20260502032727 7 44 0.0 0.0 0.00 0.00 0.00 84 1024.0
20260502032223 7 44 0.0 0.0 0.00 0.00 0.00 84 1024.0
20260502031721 7 44 0.0 0.0 0.00 0.00 0.00 84 1024.0
20260502031220 7 44 0.0 0.0 0.00 0.00 0.00 84 1023.9
20260502030723 7 44 0.0 0.0 0.00 0.00 0.00 84 1023.9
20260502030224 7 44 0.0 0.0 0.00 0.00 0.00 84 1023.9
20260502025734 7 44 0.0 0.0 0.00 0.00 0.00 84 1024.0
20260502025225 7 44 0.0 0.0 0.00 0.00 0.00 83 1024.0
20260502024713 7 44 0.0 0.0 0.00 0.00 0.00 83 1024.1
20260502024230 7 44 0.0 0.0 0.00 0.00 0.00 84 1024.0
20260502023727 7 44 0.0 0.0 0.00 0.00 0.00 83 1024.1
20260502023221 7 44 0.0 0.0 0.00 0.00 0.00 83 1024.1
20260502022731 7 44 0.0 0.0 0.00 0.00 0.00 83 1024.1
20260502022225 7 44 0.0 0.0 0.00 0.00 0.00 83 1024.1
20260502021718 7 44 0.0 0.0 0.00 0.00 0.00 83 1024.1
20260502021223 7 44 0.0 0.0 0.00 0.00 0.00 82 1024.1
20260502020736 7 44 0.0 0.0 0.00 0.00 0.00 82 1024.1
20260502020220 7 44 0.0 0.0 0.00 0.00 0.00 82 1024.0
20260502015713 7 44 0.0 0.0 0.00 0.00 0.00 81 1024.0
20260502015231 7 44 0.0 0.0 0.00 0.00 0.00 81 1024.0
20260502014728 7 44 0.0 0.0 0.00 0.00 0.00 81 1024.0
20260502014224 7 44 0.0 0.0 0.00 0.00 0.00 81 1024.0
20260502013722 7 44 0.0 0.0 0.00 0.00 0.00 80 1024.0
20260502013235 8 44 0.0 0.0 0.00 0.00 0.00 80 1024.0
20260502012730 8 44 0.0 0.0 0.00 0.00 0.00 80 1024.0
20260502012224 8 44 0.0 0.0 0.00 0.00 0.00 80 1024.0
20260502011720 8 44 0.0 0.0 0.00 0.00 0.00 81 1024.0
20260502011215 8 44 0.0 0.0 0.00 0.00 0.00 80 1023.9
20260502010732 8 44 0.0 0.0 0.00 0.00 0.00 80 1024.0
20260502010224 8 44 0.0 0.0 0.00 0.00 0.00 80 1024.0
20260502005721 8 44 0.0 0.0 0.00 0.00 0.00 80 1023.9
20260502005215 8 44 0.0 0.0 0.00 0.00 0.00 80 1024.0
20260502004727 8 44 0.0 0.0 0.00 0.00 0.00 80 1023.9
20260502004226 8 44 0.0 0.0 0.00 0.00 0.00 79 1023.9
20260502003716 8 44 0.0 0.0 0.00 0.00 0.00 79 1023.9
20260502003227 8 44 0.0 0.0 0.00 0.00 0.00 79 1023.9
20260502002722 8 44 0.0 0.0 0.00 0.00 0.00 78 1023.9
20260502002233 8 44 0.0 0.0 0.00 0.00 0.00 77 1023.9
20260502001725 8 44 0.0 0.0 0.00 0.00 0.00 76 1024.0
20260502001222 9 44 0.0 0.0 0.00 0.00 0.00 76 1024.0
20260502000714 9 44 0.0 0.0 0.00 0.00 0.00 76 1024.0
20260502000226 9 44 0.0 0.0 0.00 0.00 0.00 75 1024.0
20260501235715 9 44 0.0 0.0 0.00 0.00 0.00 75 1024.0
20260501235215 9 44 0.0 0.0 0.00 0.00 0.00 75 1024.0
20260501234716 9 44 0.0 0.0 0.00 0.00 0.00 75 1024.1
20260501234232 10 44 0.0 0.0 0.00 0.00 0.00 75 1024.0
20260501233727 9 44 0.0 0.0 0.00 0.00 0.00 76 1024.0
20260501233221 9 44 0.0 0.0 0.00 0.00 0.00 76 1023.9
20260501232730 9 44 0.0 0.0 0.00 0.00 0.00 77 1024.0
20260501232227 9 44 0.0 0.0 0.00 0.00 0.00 76 1023.9